Retour au catalogue

FENGYUN 1C DEB

ActifSSO
NORAD 41833·DEBRIS·🇨🇳 China

Lancé May 10, 1999 depuis Taiyuan Satellite Launch Center

Loading…

Prochains Passages (prochaines 24 heures)

TLE

FraisSource: Space-Track

Époque: Sep 13, 2026, 03:22 UTC

1 41833U 99025EYL 26256.14032171  .00002165  00000-0  88361-3 0  9997
2 41833  98.7322 330.3329 0054137 145.5581 214.9127 14.27602440512772

Suivez FENGYUN 1C DEB en temps réel avec AllMySat

Download on the App Store